Location: Munkebjergskolens Observatorium
(55.3864°N, 10.3987°E)
Time: 09:54:15
(UTC+02:00)

JY1SAT - Pass Details

Date: 04 April 2023
Orbit: 555 x 574 km, 97.6° (Epoch: 03 June)

Event Time Altitude Azimuth Distance (km) Brightness Sun altitude
Exits shadow 23:35:44 17° 248° (WSW) 1,472 ? -25.0°
Maximum altitude 23:36:56 19° 271° (W) 1,383 ? -25.0°
Drops below altitude 10° 23:39:51 10° 317° (NW) 1,878 ? -25.2°
Sets 23:42:33 0° 335° (NNW) 2,786 ? -25.4°
